TimeCST,TemperatureF,Dew PointF,Humidity,Sea Level PressureIn,VisibilityMPH,Wind Direction,Wind SpeedMPH,Gust SpeedMPH,PrecipitationIn,Events,Conditions,WindDirDegrees,DateUTC
12:55 AM,47.3,41.2,79,30.17,10.0,North,8.1,-,N/A,,Overcast,350,2013-01-03 06:55:00
12:56 AM,48.2,41.0,76,30.17,10.0,North,8.1,-,N/A,Rain,Light Rain,350,2013-01-03 06:56:00
1:55 AM,46.0,43.5,91,30.18,10.0,NNW,10.4,-,0.01,Rain,Light Rain,340,2013-01-03 07:55:00
2:04 AM,46.4,42.8,87,30.18,10.0,NNW,9.2,-,N/A,Rain,Light Rain,340,2013-01-03 08:04:00
2:06 AM,46.4,42.8,87,30.18,10.0,NNW,11.5,-,N/A,Rain,Light Rain,340,2013-01-03 08:06:00
2:52 AM,44.6,42.8,93,30.18,8.0,North,6.9,-,N/A,Rain,Light Rain,350,2013-01-03 08:52:00
2:55 AM,45.0,43.2,93,30.18,8.0,North,6.9,-,0.03,Rain,Light Rain,350,2013-01-03 08:55:00
2:59 AM,44.6,42.8,93,30.18,6.0,Variable,5.8,-,N/A,Rain,Light Rain,0,2013-01-03 08:59:00
3:25 AM,44.6,42.8,93,30.18,6.0,North,6.9,-,N/A,Rain,Light Rain,360,2013-01-03 09:25:00
3:31 AM,44.6,42.8,93,30.17,7.0,North,8.1,-,N/A,Rain,Light Rain,10,2013-01-03 09:31:00
3:32 AM,44.6,42.8,93,30.17,7.0,North,8.1,-,N/A,Rain,Light Rain,10,2013-01-03 09:32:00
3:33 AM,44.6,42.8,93,30.17,8.0,North,8.1,-,N/A,Rain,Light Rain,10,2013-01-03 09:33:00
3:40 AM,44.6,42.8,93,30.17,7.0,North,9.2,-,N/A,Rain,Light Rain,360,2013-01-03 09:40:00
3:43 AM,44.6,42.8,93,30.18,7.0,North,8.1,-,N/A,Rain,Light Rain,350,2013-01-03 09:43:00
3:49 AM,44.6,42.8,93,30.18,7.0,NNW,4.6,-,N/A,Rain,Light Rain,340,2013-01-03 09:49:00
3:55 AM,44.8,43.5,95,30.18,6.0,North,6.9,-,0.04,Rain,Light Rain,350,2013-01-03 09:55:00
4:04 AM,44.6,42.8,93,30.17,7.0,North,8.1,-,N/A,Rain,Light Rain,360,2013-01-03 10:04:00
4:07 AM,44.6,42.8,93,30.17,7.0,North,6.9,-,N/A,Rain,Light Rain,350,2013-01-03 10:07:00
4:08 AM,44.6,42.8,93,30.18,7.0,North,5.8,-,N/A,Rain,Light Rain,350,2013-01-03 10:08:00
4:09 AM,44.6,42.8,93,30.18,7.0,North,4.6,-,N/A,Rain,Light Rain,360,2013-01-03 10:09:00
4:14 AM,44.6,42.8,93,30.19,6.0,NNW,4.6,-,N/A,Rain,Light Rain,330,2013-01-03 10:14:00
4:55 AM,44.4,43.2,95,30.18,7.0,North,9.2,-,0.03,Rain,Light Rain,360,2013-01-03 10:55:00
4:57 AM,44.6,42.8,93,30.19,7.0,North,8.1,-,N/A,Rain,Light Rain,360,2013-01-03 10:57:00
5:08 AM,44.6,42.8,93,30.19,9.0,North,10.4,-,N/A,Rain,Light Rain,360,2013-01-03 11:08:00
5:09 AM,44.6,42.8,93,30.19,10.0,North,10.4,-,N/A,Rain,Light Rain,360,2013-01-03 11:09:00
5:25 AM,44.6,42.8,93,30.20,10.0,North,10.4,-,N/A,Rain,Light Rain,350,2013-01-03 11:25:00
5:31 AM,44.6,42.8,93,30.20,10.0,North,6.9,-,N/A,Rain,Light Rain,360,2013-01-03 11:31:00
5:54 AM,42.8,41.0,93,30.20,10.0,North,10.4,-,N/A,,Light Drizzle,360,2013-01-03 11:54:00
5:55 AM,43.5,41.7,93,30.20,10.0,North,10.4,-,0.01,Rain,Light Rain,360,2013-01-03 11:55:00
6:16 AM,42.8,41.0,93,30.22,10.0,North,9.2,-,N/A,Rain,Light Rain,350,2013-01-03 12:16:00
6:38 AM,42.8,41.0,93,30.22,10.0,North,9.2,-,N/A,Rain,Light Rain,350,2013-01-03 12:38:00
6:55 AM,43.0,41.4,94,30.23,10.0,North,8.1,-,0.02,Rain,Light Rain,360,2013-01-03 12:55:00
6:59 AM,42.8,41.0,93,30.22,10.0,North,6.9,-,N/A,,Mostly Cloudy,360,2013-01-03 12:59:00
7:01 AM,42.8,41.0,93,30.23,10.0,North,6.9,-,N/A,Rain,Light Rain,360,2013-01-03 13:01:00
7:04 AM,42.8,41.0,93,30.22,10.0,North,6.9,-,N/A,Rain,Light Rain,360,2013-01-03 13:04:00
7:05 AM,42.8,41.0,93,30.23,10.0,North,6.9,-,N/A,Rain,Light Rain,360,2013-01-03 13:05:00
7:16 AM,42.8,41.0,93,30.22,10.0,North,6.9,-,N/A,Rain,Light Rain,360,2013-01-03 13:16:00
7:34 AM,42.8,41.0,93,30.23,10.0,North,5.8,-,N/A,Rain,Light Rain,360,2013-01-03 13:34:00
7:55 AM,43.2,41.9,95,30.23,10.0,North,6.9,-,0.01,Rain,Light Rain,360,2013-01-03 13:55:00
8:10 AM,42.8,41.0,93,30.22,10.0,North,9.2,-,N/A,Rain,Light Rain,360,2013-01-03 14:10:00
8:26 AM,42.8,41.0,93,30.23,10.0,North,6.9,-,N/A,Rain,Light Rain,360,2013-01-03 14:26:00
8:55 AM,43.2,41.5,94,30.25,6.0,North,11.5,-,0.04,Rain,Light Rain,350,2013-01-03 14:55:00
9:16 AM,42.8,41.0,93,30.24,6.0,North,15.0,19.6,N/A,Rain,Light Rain,350,2013-01-03 15:16:00
9:55 AM,42.6,40.1,91,30.27,7.0,North,10.4,-,0.04,Rain,Light Rain,360,2013-01-03 15:55:00
10:55 AM,43.5,41.2,91,30.27,10.0,North,10.4,-,N/A,,Overcast,350,2013-01-03 16:55:00
11:55 AM,45.1,40.8,85,30.23,10.0,North,9.2,-,N/A,,Overcast,360,2013-01-03 17:55:00
12:55 PM,46.4,41.0,81,30.22,10.0,North,10.4,-,N/A,,Overcast,360,2013-01-03 18:55:00
1:55 PM,46.6,40.8,80,30.22,10.0,North,11.5,-,N/A,,Overcast,350,2013-01-03 19:55:00
2:55 PM,46.0,40.1,80,30.23,10.0,North,11.5,-,N/A,,Mostly Cloudy,350,2013-01-03 20:55:00
3:55 PM,45.9,39.7,79,30.25,10.0,North,9.2,-,N/A,,Mostly Cloudy,360,2013-01-03 21:55:00
4:55 PM,44.4,39.6,83,30.28,10.0,North,6.9,-,N/A,,Mostly Cloudy,350,2013-01-03 22:55:00
5:55 PM,42.3,38.5,86,30.30,10.0,North,6.9,-,N/A,,Mostly Cloudy,10,2013-01-03 23:55:00
6:55 PM,41.4,38.1,88,30.31,10.0,North,6.9,-,N/A,,Scattered Clouds,360,2013-01-04 00:55:00
7:55 PM,39.2,36.9,91,30.33,10.0,NNW,4.6,-,N/A,,Scattered Clouds,340,2013-01-04 01:55:00
8:55 PM,38.5,35.2,88,30.34,10.0,NNW,6.9,-,N/A,,Partly Cloudy,340,2013-01-04 02:55:00
9:55 PM,37.6,33.8,86,30.34,10.0,North,8.1,-,N/A,,Clear,360,2013-01-04 03:55:00
10:55 PM,36.1,32.4,86,30.34,10.0,North,5.8,-,N/A,,Clear,360,2013-01-04 04:55:00
11:55 PM,33.3,31.3,92,30.34,10.0,North,8.1,-,N/A,,Scattered Clouds,360,2013-01-04 05:55:00